Home   Weather   Denizli   Past weeks
Flag for Turkey

Past Weather in Denizli, Turkey — Yesterday and Last 2 Weeks

Now
67 °F

Sunny.


Feels Like: 67 °F
Forecast: 93 / 61 °F
Wind: 1 mph from Southwest

Location: Denizli

Current Time: Jul 19, 2019 at 7:23:46 am

Latest Report: Jul 19, 2019 at 6:00 am


Visibility: 13 mi

Pressure: 29.83 "Hg

Humidity: 65%

Dew Point: 55 °F

Location of DenizliLocation

Past Weather in Denizli — Graph

°F

Denizli Temperature Yesterday

Maximum temperature yesterday: 84 °F (at 3:00 pm)
Minimum temperature yesterday: 65 °F (at 1:00 am)
Average temperature yesterday: 74 °F

High & Low Weather Summary for the Past Weeks

 TemperatureHumidityPressure
High100 °F (Jul 4, 4:00 pm)89% (Jul 14, 9:00 pm)29.85 "Hg (Jul 14, 9:00 pm)
Low65 °F (Jul 18, 1:00 am)12% (Jul 4, 4:00 pm)29.47 "Hg (Jul 11, 2:00 pm)
Average80 °F40%29.70 "Hg
* Reported Jul 4 6:00 am — Jul 19 6:00 am, Denizli. Weather by CustomWeather, © 2019

Note: Actual official high and low records may vary slightly from our data, if they occured in-between our weather recording intervals... More about our weather records

Advertising

Denizli Weather History for the Previous 24 Hours

Scroll right to see more
 ConditionsComfort  
Time TempWeatherWind HumidityBarometerVisibility
6:00 am
Fri, Jul 19
67 °FSunny.1 mph65%29.83 "Hg12 mi
5:00 am69 °FClear.2 mph62%29.82 "Hg12 mi
4:00 am69 °FClear.2 mph61%29.81 "Hg12 mi
3:00 am72 °FClear.1 mph56%29.81 "Hg12 mi
2:00 am72 °FClear.1 mph55%29.80 "Hg12 mi
1:00 am73 °FClear.2 mph54%29.79 "Hg12 mi
12:00 am76 °FPassing clouds.1 mph50%29.79 "Hg12 mi
11:00 pm
Thu, Jul 18
78 °FPassing clouds.5 mph46%29.79 "Hg12 mi
10:00 pm79 °FPassing clouds.5 mph45%29.78 "Hg12 mi
9:00 pm79 °FPassing clouds.3 mph46%29.76 "Hg12 mi
8:00 pm82 °FPassing clouds.3 mph42%29.73 "Hg12 mi
7:00 pm83 °FPassing clouds.5 mph39%29.72 "Hg12 mi
6:00 pm83 °FScattered clouds.2 mph39%29.72 "Hg12 mi
5:00 pm84 °FScattered clouds.3 mph42%29.72 "Hg12 mi
4:00 pm84 °FScattered clouds.6 mph40%29.72 "Hg12 mi
3:00 pm84 °FPassing clouds.2 mph38%29.72 "Hg12 mi
2:00 pm81 °FPassing clouds.3 mph41%29.74 "Hg12 mi
1:00 pm79 °FPassing clouds.2 mph46%29.75 "Hg12 mi
12:00 pm78 °FScattered clouds.3 mph52%29.76 "Hg12 mi
11:00 am74 °FScattered clouds.3 mph58%29.76 "Hg12 mi
10:00 am71 °FPartly sunny.2 mph65%29.75 "Hg12 mi
9:00 am68 °FOvercast.3 mph74%29.75 "Hg12 mi
8:00 am66 °FOvercast.3 mph78%29.73 "Hg12 mi
7:00 am66 °FPartly sunny.5 mph81%29.72 "Hg12 mi
Weather by CustomWeather, © 2019

See weather overview